Theta_e
307 306 306 306 306 306 306 306 306 306 306 294 291 292 289 284 286 294 296 298 296 287 277 278 277 275 281 283 285 283 283 280 282 283 283 284 283 281 282 283 281 280 281 280 278 279 275 278 276 278 278 278 279 278 277 278 279 278 275 278 280 284 269 266 271 273 273 275 276 277 276 280 277 275 275 272 270 272 267 266 264 268 266 268 267 266 266
306 306 306 306 306 306 306 306 305 306 305 298 295 285 284 284 287 290 296 293 291 284 279 278 276 276 281 283 284 284 285 284 282 282 281 281 280 281 280 283 282 281 281 279 280 280 273 278 277 278 278 279 279 277 277 279 280 278 279 275 279 271 272 272 264 258 266 269 272 275 275 276 273 273 273 272 270 267 266 266 264 269 264 268 264 260 262
306 305 306 306 306 306 305 305 305 306 306 302 294 289 286 283 288 288 290 294 288 281 279 278 273 277 280 280 280 279 283 283 284 283 283 282 279 278 280 282 282 280 281 280 280 280 279 276 277 276 276 277 279 277 277 276 279 280 281 285 280 273 271 268 266 265 263 262 262 264 268 271 274 275 272 272 270 269 270 269 264 264 266 268 263 260 271
305 305 306 305 305 305 305 305 305 306 306 305 295 289 284 284 281 283 282 286 285 283 280 278 277 274 277 276 279 279 280 284 282 283 283 282 282 280 282 280 280 280 280 280 279 279 281 279 274 271 276 273 277 278 275 278 279 282 285 283 278 270 273 273 266 264 264 268 271 274 278 274 269 270 270 268 267 266 266 263 260 262 261 264 266 268 269
305 305 305 305 305 305 305 305 306 306 306 304 294 289 285 282 278 280 278 281 283 280 280 280 279 279 279 275 279 277 280 281 282 284 283 283 282 282 281 282 281 279 279 277 278 278 279 279 276 273 272 271 275 277 278 278 280 285 282 282 271 266 269 272 274 270 273 275 275 276 277 272 272 267 268 269 267 265 268 264 263 268 259 259 264 270 266
305 305 305 305 305 304 305 305 305 306 306 304 297 288 285 281 281 281 283 283 280 275 279 281 280 282 281 278 282 279 279 279 277 282 283 282 281 282 282 280 280 279 281 280 273 276 277 275 274 271 270 272 273 276 280 279 282 280 278 274 273 269 270 271 270 268 272 274 275 274 273 272 272 270 269 268 268 268 264 265 269 267 261 262 268 269 267
305 305 304 304 304 305 304 305 305 306 305 303 295 287 287 284 283 282 285 284 280 281 281 283 282 280 280 280 281 278 279 279 281 280 280 280 281 281 275 279 281 280 279 280 275 276 271 271 271 270 271 272 272 270 273 280 277 277 275 275 268 270 266 268 269 271 273 274 274 274 273 271 271 269 271 271 269 267 266 267 269 269 267 270 270 269 269
305 305 304 304 304 304 304 304 304 305 305 299 292 290 288 284 287 283 281 280 278 278 279 281 278 280 281 277 281 280 280 280 281 281 280 276 280 282 282 280 279 279 279 279 275 277 278 275 273 272 273 272 270 271 272 273 275 276 275 273 274 274 270 275 269 267 269 272 272 271 272 270 269 271 271 271 270 269 269 266 268 267 265 269 268 267 266
305 304 304 304 303 303 303 304 305 305 305 291 290 289 288 288 287 286 284 282 281 279 279 281 280 276 277 277 280 282 280 281 282 281 282 281 280 281 280 280 280 278 279 279 280 281 280 278 278 277 276 273 278 273 272 278 273 272 271 272 271 271 271 265 263 267 268 273 270 271 271 269 268 268 269 269 269 266 268 263 268 265 263 265 263 262 264
305 304 304 303 303 303 304 305 305 305 303 291 286 287 286 286 288 285 285 281 283 280 277 278 280 276 280 282 281 281 281 281 281 281 282 280 282 283 282 279 282 278 280 280 281 282 280 281 280 279 279 279 279 279 280 279 276 271 272 270 270 268 268 267 265 266 262 273 271 271 271 270 263 263 268 269 270 270 270 269 269 269 269 262 261 263 270
304 303 303 303 303 304 305 306 306 305 298 293 288 289 286 290 290 285 281 280 279 275 279 277 278 281 282 281 281 281 281 279 281 277 278 283 284 281 282 282 280 277 277 282 283 282 281 281 280 279 279 277 277 277 277 278 277 277 274 268 268 266 268 268 267 267 262 266 270 271 265 260 259 271 272 272 270 270 268 268 268 270 270 267 270 269 270
304 304 304 303 304 304 305 306 306 305 299 295 292 290 289 289 286 280 280 281 281 273 276 278 281 281 280 280 280 281 281 281 281 282 280 280 282 281 281 280 279 275 282 280 280 281 280 281 281 279 280 279 279 278 278 278 278 277 276 275 267 267 266 269 265 267 265 264 264 262 259 258 269 272 274 273 273 273 271 270 270 270 270 270 269 269 269
305 305 304 304 304 305 305 305 305 306 303 291 290 289 287 286 289 283 280 279 276 276 276 278 274 277 278 280 280 280 281 280 280 281 281 282 281 281 282 281 280 282 281 281 280 281 278 275 277 278 279 277 278 277 278 277 277 278 276 274 271 268 268 266 266 265 261 261 260 259 259 269 272 273 273 274 273 273 271 268 268 268 269 269 267 268 268
305 305 305 305 305 305 304 304 305 305 303 296 290 286 283 286 289 283 281 277 279 274 274 278 274 277 278 280 279 280 281 281 278 280 283 282 281 281 282 283 283 282 279 279 279 277 276 272 268 270 272 273 273 271 276 276 277 276 276 275 276 271 262 265 266 262 262 261 260 261 270 268 268 267 270 271 268 269 268 263 266 268 269 268 267 268 268
305 305 305 305 304 304 304 304 305 305 301 296 289 285 286 285 287 288 284 280 278 277 275 279 278 279 277 278 280 276 274 275 277 280 281 282 281 281 283 284 282 280 280 280 275 276 272 269 268 267 267 267 268 268 276 274 276 276 275 274 275 275 269 270 264 264 261 262 260 256 259 257 260 269 272 274 273 273 272 267 265 270 269 270 268 266 267
305 305 305 305 305 305 305 305 305 305 303 297 290 286 286 286 284 287 284 280 279 281 279 279 279 278 279 279 280 279 277 275 275 276 276 276 280 282 283 281 281 280 281 277 274 270 270 273 268 266 269 268 271 271 267 273 273 275 274 273 274 273 271 267 268 263 261 260 259 259 257 258 267 268 271 272 273 273 272 263 262 269 269 269 268 266 267
306 305 305 305 305 305 305 305 305 305 304 301 287 287 287 286 287 287 283 280 280 277 279 281 281 279 279 277 277 277 278 277 279 275 274 276 282 282 282 282 281 282 281 277 273 273 271 267 265 266 264 272 270 269 273 270 267 268 273 271 269 267 265 268 265 259 261 258 260 260 259 258 267 270 271 272 273 273 266 258 260 265 269 269 268 266 266
306 305 305 305 305 305 305 305 305 305 304 300 290 287 285 286 284 286 283 279 277 275 281 282 281 281 279 278 278 280 279 278 278 277 278 279 279 280 281 282 280 281 282 274 272 267 266 267 270 268 269 276 275 270 265 268 263 264 268 267 263 261 261 264 264 261 261 265 258 258 263 270 270 270 272 272 273 269 258 257 262 268 269 269 268 267 267
305 305 305 304 304 305 305 305 305 304 304 299 289 287 286 287 286 285 284 280 280 277 280 284 283 280 281 283 281 281 280 282 280 277 273 275 279 281 282 281 282 275 278 274 270 271 269 269 269 265 267 271 273 265 270 264 265 269 267 266 264 260 260 261 258 260 260 259 261 261 260 268 270 272 272 272 267 256 259 266 270 270 269 269 268 267 268
305 304 305 305 305 305 304 304 304 304 304 302 292 287 286 287 285 286 284 278 276 278 280 280 281 280 282 281 280 279 280 278 277 277 275 275 278 279 276 274 278 277 274 274 269 272 268 271 270 270 265 265 271 271 266 269 272 269 267 264 261 262 261 260 259 259 260 257 254 258 256 262 273 271 269 270 261 264 268 269 270 271 269 268 268 268 267
304 304 304 304 304 304 304 304 304 303 304 303 295 285 285 288 287 287 284 285 280 278 276 281 281 281 282 281 281 281 281 278 278 275 277 277 278 276 270 272 274 275 272 271 271 271 271 269 267 269 272 271 272 269 263 261 266 273 271 265 264 265 260 258 258 259 259 254 257 258 265 270 273 270 263 266 268 270 270 270 267 269 268 267 267 267 266
304 303 303 304 304 304 304 303 303 303 304 303 296 287 285 286 286 288 288 286 281 276 277 281 282 282 283 283 283 284 283 282 283 282 278 275 278 277 276 277 278 275 276 275 269 269 270 270 267 265 267 267 271 264 264 259 264 266 268 267 261 269 262 262 263 261 260 260 263 271 272 271 272 270 269 270 271 271 270 269 268 267 267 268 266 265 265
305 305 304 304 304 304 304 303 303 304 303 303 293 285 287 286 286 288 286 284 281 283 284 283 284 284 285 285 285 285 284 286 285 284 282 279 276 277 277 276 275 280 279 278 275 272 272 268 270 268 266 266 267 263 266 261 263 263 263 271 267 272 272 270 267 262 270 272 272 273 272 272 272 271 271 269 270 270 269 268 267 268 267 267 265 265 265
304 303 303 303 303 303 303 303 303 304 303 301 294 289 286 286 287 286 285 283 278 276 279 281 279 277 277 279 280 282 283 284 284 285 285 282 276 274 276 278 279 278 277 279 278 275 271 270 271 266 268 267 262 263 262 265 264 265 260 263 264 270 271 269 262 268 266 261 271 270 270 271 271 270 270 270 270 269 269 268 268 267 267 266 267 266 265
302 302 302 302 302 302 302 302 303 303 303 301 295 293 290 286 286 286 284 282 279 277 276 274 277 281 282 282 282 281 282 284 286 285 284 283 281 279 276 279 280 279 277 278 278 273 270 271 270 268 267 270 268 266 270 266 265 269 262 263 264 264 271 267 267 267 265 266 270 271 271 272 272 269 268 268 269 269 269 269 268 267 267 267 266 265 264
301 302 302 302 303 303 301 302 302 302 301 301 299 288 287 288 286 286 287 285 281 279 276 272 277 282 280 281 280 281 282 283 282 281 282 282 282 281 281 280 280 278 278 279 273 272 268 269 269 266 266 270 273 266 265 270 269 270 266 261 270 269 269 261 267 265 268 270 271 270 270 271 270 270 269 269 269 268 268 268 267 266 265 265 265 265 264
301 302 302 303 303 303 302 302 303 300 299 298 292 289 288 286 287 287 288 286 282 279 277 273 273 279 281 280 282 282 281 281 279 279 279 281 280 281 281 280 279 278 275 271 271 269 268 268 268 270 266 269 266 267 267 267 266 260 262 270 271 268 264 267 265 260 260 261 266 268 263 262 268 269 268 268 268 267 267 266 265 265 264 263 262 263 264
301 302 302 303 303 302 302 301 302 300 298 297 293 290 287 289 288 287 286 289 288 282 276 272 274 279 281 280 282 280 280 281 280 279 279 279 280 281 280 279 277 273 269 268 272 272 266 269 270 268 267 269 267 268 265 264 262 263 265 269 270 268 268 267 261 261 262 269 269 269 268 268 269 268 268 268 267 267 265 264 264 264 264 263 262 261 261
301 301 302 302 302 302 302 302 301 301 299 295 287 286 287 287 287 291 291 286 286 282 280 278 278 276 275 280 282 280 279 280 280 279 279 279 280 279 279 278 278 274 270 271 269 266 264 269 268 267 270 275 270 266 265 263 258 260 266 270 270 271 272 271 270 270 270 271 269 268 267 265 267 268 268 267 267 266 265 265 265 264 263 262 262 262 260
301 301 302 302 302 302 302 302 302 301 298 286 284 279 281 287 289 290 293 288 285 285 279 274 274 275 280 281 281 279 280 281 279 279 280 280 280 279 279 278 278 280 274 271 269 270 272 268 268 273 275 277 269 265 262 258 256 266 270 271 271 270 271 272 272 269 268 270 268 268 268 268 268 268 268 267 266 265 264 263 263 262 262 262 261 261 261
301 302 302 302 302 301 300 300 300 298 294 285 284 281 277 279 285 290 294 288 284 284 278 277 274 275 277 282 280 280 280 280 278 279 280 280 279 279 276 275 276 277 271 269 268 272 270 266 266 271 274 279 268 261 263 258 260 260 269 270 270 270 271 271 272 272 270 268 268 269 268 268 269 268 268 266 265 265 264 264 263 263 262 262 261 261 261
301 301 302 302 302 301 300 299 298 295 288 288 284 282 283 284 285 291 293 292 285 282 279 276 273 273 272 277 280 280 280 280 279 279 279 280 279 279 277 279 276 279 280 269 271 267 269 273 267 268 266 276 270 259 256 255 258 260 268 270 270 271 271 270 270 270 269 269 267 266 265 266 267 264 263 265 265 265 264 263 263 262 262 261 261 261 260
301 301 301 301 301 301 301 299 298 294 290 293 298 298 297 297 297 295 293 287 283 278 276 275 273 274 273 274 280 281 281 279 278 277 276 279 278 278 276 277 276 276 284 277 269 268 273 270 268 265 271 270 265 261 255 257 262 268 270 271 271 271 271 271 270 269 268 268 267 263 263 264 265 266 266 265 264 263 263 262 262 261 260 259 259 259 259
301 301 301 300 301 301 301 300 299 297 294 285 285 289 288 296 294 296 288 282 279 278 277 275 270 271 272 273 275 278 282 278 273 274 273 280 278 278 275 276 277 275 278 273 275 273 274 270 265 267 266 265 262 261 262 267 269 270 270 270 270 270 270 269 269 267 268 268 267 267 267 267 267 266 265 263 263 263 263 262 260 259 258 258 258 258 258
302 300 300 300 300 302 301 298 286 287 285 286 287 285 286 296 297 294 289 285 281 276 273 273 272 269 269 270 268 271 279 277 273 274 274 276 277 276 277 272 271 269 273 275 272 272 266 269 271 263 266 262 261 261 261 267 269 269 269 269 270 270 268 267 267 268 267 267 266 266 266 265 263 262 262 262 262 262 261 260 260 258 257 257 257 258 258
302 301 300 299 300 298 289 290 288 284 282 284 287 292 297 297 295 286 286 287 282 273 271 271 269 269 268 269 270 273 282 275 274 271 272 274 274 277 271 266 270 273 276 270 267 267 267 275 270 267 261 261 260 260 265 268 268 269 269 269 270 268 268 267 267 266 266 266 265 265 264 263 262 261 262 262 262 261 260 259 258 258 257 257 257 257 257
301 299 298 295 287 286 283 284 286 286 285 286 291 296 297 296 287 287 287 284 284 281 275 269 272 271 274 271 270 272 278 271 273 271 269 272 272 270 267 267 269 275 267 263 264 266 271 274 263 262 259 261 262 269 269 269 268 269 269 270 270 269 268 267 266 265 264 264 263 264 264 262 261 261 261 260 260 260 259 258 258 258 256 256 257 256 256
299 296 287 286 283 282 282 282 284 285 295 294 295 288 286 285 282 279 277 279 277 281 275 274 271 269 271 273 271 278 275 269 271 271 269 268 272 271 267 268 272 274 265 265 265 272 265 261 261 262 262 267 269 270 270 270 270 271 270 270 269 268 267 266 266 264 263 262 263 263 263 263 262 262 260 259 259 259 259 260 259 259 259 258 257 257 256
295 287 285 280 282 281 281 286 288 295 290 290 285 283 281 279 275 274 275 273 272 275 271 272 271 272 268 265 270 276 276 272 270 264 269 272 271 268 267 268 272 267 263 261 268 271 265 259 257 258 262 262 266 269 270 270 271 271 270 270 269 268 267 266 266 265 263 263 263 262 262 261 259 260 260 259 260 261 260 260 259 259 258 257 257 256 255
289 287 284 280 282 285 286 287 295 290 286 284 280 279 276 278 277 274 273 269 270 269 270 271 272 272 275 274 271 268 278 272 268 269 268 268 275 270 270 266 268 265 263 260 265 263 266 263 259 260 260 259 267 270 269 269 269 270 269 268 268 267 267 266 265 266 265 264 263 262 261 261 260 259 259 259 259 259 259 258 258 257 256 256 256 256 254
284 282 282 284 284 283 286 286 285 283 282 278 276 275 274 273 274 272 269 266 269 271 270 269 265 267 268 269 271 270 275 275 269 266 266 269 270 274 266 266 268 265 262 262 265 262 261 261 257 259 261 266 268 268 269 269 269 269 268 268 267 266 265 265 265 265 264 263 262 261 260 256 256 258 259 258 258 256 256 256 255 255 254 254 255 255 256
288 288 287 285 284 283 286 285 282 281 278 278 274 271 270 271 271 270 272 271 270 269 270 270 269 269 269 274 272 270 268 268 268 267 268 266 274 269 265 265 263 262 262 264 263 261 261 261 257 256 260 267 269 268 268 269 269 267 267 266 266 265 265 264 264 264 263 262 261 260 260 256 255 257 256 255 255 254 253 252 253 252 253 254 255 255 255
296 291 286 282 284 283 280 280 281 275 271 271 270 270 269 268 271 271 269 270 269 269 271 269 269 274 273 272 270 270 271 275 273 267 267 268 274 267 263 262 263 263 264 262 261 260 261 260 257 259 267 268 268 268 269 269 268 267 266 266 265 265 264 264 263 261 261 260 257 258 257 255 255 255 254 252 251 251 251 251 251 251 253 254 254 254 253
288 285 284 280 282 281 283 277 281 276 272 270 268 270 267 267 270 268 269 270 268 267 270 269 270 273 269 267 269 270 269 273 276 266 267 266 265 263 262 263 262 264 264 261 260 263 260 257 262 263 268 269 270 268 269 268 267 266 265 265 264 264 264 263 261 259 259 259 257 256 256 254 254 253 252 252 252 251 251 250 251 253 253 253 253 253 252
287 283 277 277 275 280 279 274 276 272 272 271 273 269 267 271 270 266 270 269 269 271 267 265 268 268 270 269 268 270 273 269 270 267 265 264 263 264 263 264 263 259 261 261 257 256 260 261 262 266 268 268 269 269 269 268 267 267 266 264 263 264 263 263 261 260 260 259 257 257 256 256 255 255 254 253 252 252 251 250 252 252 253 253 252 251 252
282 281 277 277 275 276 273 271 269 270 272 271 272 267 266 267 269 268 267 267 267 266 269 267 264 265 267 266 269 268 263 265 266 264 261 263 263 263 263 264 261 261 260 256 260 259 263 263 266 268 269 269 268 268 267 267 267 265 263 264 264 263 263 263 259 258 259 258 258 257 257 256 256 255 255 254 253 252 251 252 252 252 252 250 251 251 252
282 278 276 274 274 273 273 273 273 272 271 269 267 265 272 272 267 269 268 266 269 267 267 263 266 266 267 265 267 267 265 263 265 265 265 265 262 263 263 264 262 257 261 259 256 255 258 264 267 268 268 267 267 266 266 266 265 263 264 264 263 263 263 262 260 259 259 257 255 256 257 256 256 256 254 253 254 254 253 252 251 251 250 250 251 251 250
280 279 278 277 274 271 273 274 270 269 268 270 270 265 266 267 269 271 269 266 268 268 267 266 269 267 268 266 268 267 265 263 266 265 263 263 265 261 258 259 258 255 258 261 260 257 262 265 265 268 268 267 266 266 265 265 263 263 263 263 263 262 262 261 261 259 257 255 255 255 255 254 255 254 253 252 252 253 253 252 250 249 247 247 247 248 247
278 275 277 273 271 271 273 271 271 273 271 266 264 267 269 270 270 267 265 265 268 268 267 267 266 266 268 266 265 266 267 266 266 264 262 260 262 259 258 260 257 260 259 261 260 264 266 269 265 263 262 262 262 265 265 265 264 263 262 262 261 262 261 261 261 259 256 255 254 254 253 253 253 252 252 252 251 253 254 250 248 248 247 248 248 249 249
277 276 275 272 273 273 270 269 272 271 266 267 268 270 265 268 266 265 264 268 265 264 266 268 269 268 266 266 265 261 262 261 262 264 264 263 256 258 260 259 256 261 260 260 262 265 266 264 261 262 260 260 262 264 264 263 263 261 260 261 261 260 260 260 260 258 257 255 254 252 251 251 251 251 252 252 253 253 250 248 248 248 248 248 248 248 248
274 274 272 271 276 274 273 273 271 271 270 269 267 267 268 267 266 269 268 264 264 266 266 267 265 263 265 262 261 264 265 264 264 263 261 261 259 258 261 262 260 260 264 267 266 267 267 262 261 260 259 260 263 264 264 262 259 259 258 258 258 258 259 258 258 257 255 255 251 255 251 249 252 252 254 251 250 248 249 250 250 249 248 249 249 248 248
271 274 275 272 267 267 269 272 269 268 271 266 266 268 271 269 268 266 267 267 267 269 269 266 265 263 262 265 264 264 265 263 262 261 263 262 259 260 258 261 266 268 267 266 266 263 263 261 261 262 262 265 264 262 259 256 256 256 255 255 256 256 257 256 256 254 253 252 249 249 249 248 248 248 249 250 248 248 250 251 252 250 250 250 249 249 247
Wind_Speed
15 15 15 15 16 16 17 17 18 19 20 5 4 1 3 3 1 4 4 4 2 6 3 1 5 2 0 1 0 0 0 1 1 0 1 0 1 0 1 0 0 1 0 0 0 0 1 0 1 0 0 0 0 2 2 2 1 1 2 1 1 1 0 2 6 5 4 4 2 2 1 0 1 4 2 2 1 0 2 3 3 2 3 1 1 1 1
14 14 14 15 15 16 15 15 16 15 16 3 2 5 2 1 1 3 1 4 4 7 1 2 1 0 1 1 0 0 0 0 1 1 1 0 2 0 0 2 0 1 0 0 1 1 1 1 1 0 0 0 1 3 3 3 0 0 1 0 2 1 1 2 3 4 4 4 3 1 2 4 3 1 2 2 1 4 1 3 1 0 0 0 2 4 1
14 13 14 14 15 14 14 14 14 13 13 7 0 1 1 1 1 0 7 9 8 3 2 3 2 0 0 0 2 2 1 1 0 0 1 0 1 1 1 1 0 1 0 1 0 1 1 1 0 0 0 0 0 4 2 5 0 1 3 3 2 0 2 2 0 1 1 3 3 4 5 2 1 2 7 5 8 6 4 1 2 1 1 2 0 3 0
13 13 13 14 14 13 14 13 13 13 12 12 1 2 2 1 0 5 4 8 6 4 1 4 4 2 0 2 1 1 2 1 2 3 1 1 0 1 1 1 1 1 1 2 1 1 0 1 1 2 1 1 1 2 6 0 1 3 4 3 0 0 0 1 3 4 5 5 3 2 1 3 3 4 8 8 3 3 4 5 5 0 2 4 2 1 4
13 13 14 13 13 13 13 13 13 12 11 9 3 2 2 1 4 1 3 5 7 2 5 2 2 1 2 1 0 4 0 2 1 3 0 0 0 0 0 0 1 1 2 1 1 1 2 2 0 1 1 1 2 4 1 4 2 5 2 2 2 2 1 0 0 2 4 3 2 1 2 4 3 7 5 7 7 7 8 5 0 0 2 5 2 2 6
13 13 13 13 13 13 13 13 12 12 11 7 0 2 3 2 1 2 1 2 2 4 5 4 3 1 0 0 0 1 1 2 1 1 0 0 0 0 0 2 1 1 0 0 0 3 3 1 1 1 1 2 4 2 0 2 4 3 1 0 1 1 0 2 4 6 4 6 0 8 11 7 6 7 6 7 6 10 9 2 1 1 1 5 5 6 6
12 13 13 13 13 13 13 13 12 12 11 4 1 2 1 3 1 1 1 0 1 1 1 2 4 5 2 0 1 1 1 1 0 0 2 1 1 1 1 2 1 3 2 0 1 1 4 3 1 2 2 1 2 2 2 0 4 3 2 3 1 2 1 2 2 2 6 7 6 6 13 6 9 6 7 5 7 5 4 1 0 1 1 1 4 5 3
12 12 12 12 12 12 12 13 13 11 11 2 3 3 1 1 0 0 4 4 3 1 1 1 2 4 3 1 1 0 0 1 2 1 1 1 1 0 0 4 5 4 1 1 0 1 1 2 2 3 3 4 1 1 1 3 4 4 1 1 2 2 2 5 0 2 3 4 6 6 8 8 9 6 6 7 3 4 4 1 2 3 0 3 6 6 4
11 11 11 11 11 12 11 11 12 11 9 3 3 0 1 0 1 2 2 1 2 1 2 1 1 1 4 4 1 1 0 1 0 1 0 1 1 1 2 2 4 1 1 2 0 1 1 1 3 1 1 0 0 1 2 1 3 5 3 2 4 5 3 1 2 2 1 0 4 4 8 12 11 8 9 8 11 9 8 3 2 3 5 4 4 6 4
11 10 10 10 11 11 11 10 11 12 6 4 2 2 1 1 0 1 1 2 1 1 0 1 1 2 1 0 1 0 1 1 0 0 1 0 1 1 1 1 0 3 2 0 1 1 2 2 1 1 1 1 1 0 0 0 1 1 1 0 2 0 1 3 2 1 1 0 3 5 2 1 3 7 7 2 3 3 3 3 4 3 1 3 5 6 5
10 10 10 11 11 11 11 11 12 14 4 4 3 0 1 1 0 2 3 3 2 2 0 3 5 1 0 2 1 0 1 2 1 1 0 0 0 0 0 1 0 1 1 0 0 1 2 1 1 1 2 3 4 3 3 6 4 1 0 1 0 1 1 0 0 1 3 3 3 1 1 1 2 1 4 2 4 8 10 4 2 5 5 0 2 6 7
10 10 11 11 10 10 11 11 12 12 7 1 3 3 0 1 3 4 2 4 0 3 4 1 1 1 3 2 0 0 1 2 1 0 1 1 1 0 3 1 1 2 0 1 0 0 0 1 2 2 5 5 5 6 8 6 4 4 1 1 1 1 1 1 0 1 2 3 5 2 0 3 5 4 8 8 1 7 11 1 4 4 4 3 6 7 10
11 11 11 11 10 11 11 11 12 12 8 3 3 4 0 0 1 2 4 6 1 4 3 0 1 0 0 2 2 1 4 2 0 0 0 0 1 1 0 0 0 0 1 2 2 1 2 2 3 2 1 2 2 6 10 9 7 7 5 3 1 3 2 1 2 1 1 3 3 2 3 0 1 3 6 8 2 3 8 2 1 3 3 6 7 8 9
10 10 11 11 11 11 11 12 13 13 10 5 6 2 1 0 1 2 1 4 1 1 0 0 2 4 6 4 1 3 1 1 1 0 0 0 1 1 1 1 0 1 2 3 3 2 2 2 1 1 2 4 1 2 2 3 4 8 10 8 2 2 3 2 1 1 2 1 0 3 1 1 5 6 7 9 5 8 8 9 1 1 4 6 7 9 11
10 10 10 10 11 11 11 12 12 11 9 8 8 4 5 5 2 1 1 5 4 0 1 0 3 2 3 3 1 5 2 2 3 0 1 0 0 2 1 0 1 2 1 1 0 1 1 1 1 2 1 1 1 0 1 1 1 4 5 5 8 5 5 1 4 2 3 1 4 2 1 1 2 1 6 7 6 6 7 4 5 6 5 7 9 11 12
9 9 10 10 10 10 11 11 11 10 6 6 7 5 5 2 1 2 3 4 7 1 2 2 2 3 3 3 1 3 1 2 1 2 2 1 1 1 0 0 0 1 1 1 1 1 0 0 1 1 1 0 1 1 1 0 1 1 5 7 8 6 8 6 7 0 4 3 1 2 2 3 3 6 9 8 7 6 4 1 6 4 7 8 7 10 11
8 9 9 10 10 10 10 10 11 11 9 4 3 3 5 4 4 2 2 5 7 3 2 1 1 2 3 4 2 2 2 1 2 2 3 3 1 1 1 0 1 0 2 0 2 1 3 2 1 1 1 1 1 0 0 2 4 7 10 7 10 10 7 7 8 4 1 1 2 3 1 2 1 8 9 8 9 5 2 5 5 4 9 8 9 10 11
8 8 9 9 10 10 9 10 10 11 10 7 6 6 3 4 2 1 6 6 7 2 2 4 4 1 3 0 1 2 1 3 3 1 1 2 2 2 3 2 1 1 1 1 1 4 2 1 3 1 0 1 0 2 1 0 2 1 5 4 3 6 5 6 4 1 3 2 2 2 1 3 5 9 10 6 9 1 1 6 6 9 9 10 9 10 9
8 8 8 8 9 9 9 9 10 10 8 4 4 4 5 7 6 3 9 5 7 4 4 1 1 1 1 2 4 3 1 0 1 1 4 5 2 2 2 0 0 2 3 1 2 2 1 1 1 1 1 4 4 1 0 4 2 2 2 5 6 3 1 1 3 4 3 1 1 5 3 0 5 9 8 6 4 3 8 3 7 11 11 8 7 9 9
7 8 7 8 9 9 9 9 10 9 10 8 5 7 1 6 4 0 5 7 4 6 1 4 4 4 5 4 3 3 5 2 2 1 2 2 3 5 1 2 2 2 4 3 2 1 3 1 0 0 3 1 2 4 4 1 1 1 0 0 3 1 2 3 2 2 1 3 3 4 3 1 6 9 1 4 3 2 4 9 8 6 7 8 7 7 8
8 8 8 8 9 9 10 10 9 8 7 6 6 5 6 8 8 7 4 12 11 10 3 1 2 5 3 5 5 2 2 2 2 2 2 3 4 2 3 1 3 2 1 1 1 2 1 2 2 1 1 2 3 2 3 2 1 2 2 1 2 1 2 2 2 2 1 1 1 1 2 4 6 7 2 3 1 4 5 5 8 4 4 7 8 7 7
8 8 9 9 10 9 9 9 9 9 9 5 8 5 5 0 3 9 11 12 11 6 4 1 1 2 2 2 2 3 3 3 3 1 0 3 4 2 1 2 2 1 0 0 2 2 3 0 0 4 3 2 5 3 2 3 0 3 2 2 2 3 1 3 2 3 1 3 3 1 1 3 3 5 4 1 2 1 1 3 4 7 7 7 6 7 7
7 7 8 9 10 9 9 9 9 9 10 5 7 5 5 1 3 2 1 16 4 5 2 2 1 1 2 2 2 1 2 1 2 3 1 1 3 4 4 2 2 1 1 1 1 1 1 2 1 4 3 2 3 2 4 2 1 1 2 3 4 0 2 2 1 2 5 5 3 3 2 3 2 4 3 1 2 0 0 5 6 6 6 6 8 9 10
7 8 8 8 9 10 9 8 9 9 11 9 6 7 3 3 2 1 7 7 6 5 2 1 2 6 4 3 1 4 3 2 2 1 2 0 1 1 1 1 1 1 1 1 1 0 1 2 1 3 4 1 3 3 2 3 1 1 2 3 2 1 3 3 2 3 6 2 1 3 7 7 4 2 2 2 2 4 5 5 5 6 7 7 7 8 9
8 9 9 8 8 8 8 8 8 9 8 8 9 5 5 3 1 2 2 2 1 5 4 3 5 1 1 1 0 1 0 2 2 1 2 1 1 2 1 1 1 1 2 3 2 2 4 2 2 3 5 1 2 1 1 4 0 2 2 1 3 2 1 0 2 5 1 4 5 5 6 11 2 4 5 8 6 4 4 4 5 5 7 7 8 9 10
8 8 8 8 7 7 8 9 9 9 10 8 7 4 4 1 2 1 6 7 5 5 6 3 1 0 0 1 1 1 1 1 1 2 1 1 2 1 1 4 2 1 1 1 2 5 3 4 3 2 4 1 3 4 1 1 3 1 5 2 1 3 3 0 2 3 7 8 3 7 11 8 1 4 8 6 4 5 5 5 5 6 8 7 7 7 8
8 8 8 7 7 5 6 9 9 9 10 10 8 6 5 2 2 3 0 1 5 3 5 3 1 2 0 2 0 0 2 1 2 2 2 1 2 2 0 1 2 2 1 2 3 5 4 3 5 3 2 0 2 2 2 2 2 2 2 0 1 2 1 0 3 3 4 2 5 7 9 6 7 5 7 6 5 4 4 5 7 8 8 8 9 8 5
7 7 7 6 6 6 5 7 8 9 9 9 7 7 4 6 3 2 1 0 0 4 6 3 1 1 1 1 1 2 3 1 1 2 2 2 2 2 2 2 0 1 3 2 3 6 4 6 2 1 1 1 3 3 1 1 3 3 2 1 0 1 2 1 1 2 5 5 3 2 3 8 6 8 7 4 5 5 6 7 8 8 7 8 10 13 11
6 7 7 6 6 5 4 3 3 4 5 6 4 4 5 3 1 5 5 2 7 8 7 3 0 4 2 2 0 1 1 0 2 3 2 2 1 1 1 1 4 2 3 5 5 4 4 1 1 2 1 1 6 2 0 1 1 1 2 1 0 1 0 3 4 4 6 1 4 2 2 5 8 6 4 5 5 5 5 6 7 7 8 9 10 9 11
6 7 7 7 7 6 4 1 2 3 4 1 1 3 3 2 4 6 6 3 4 7 6 3 4 0 1 1 2 2 2 1 3 3 5 5 5 4 5 3 4 3 4 3 3 4 1 3 1 1 3 1 1 3 2 1 1 2 1 2 3 2 1 2 2 2 5 1 1 2 5 7 4 4 3 5 5 7 6 8 7 8 8 9 9 9 9
5 6 7 7 8 9 10 8 3 4 6 2 1 1 3 3 2 2 5 3 1 7 4 6 4 0 2 0 0 4 4 3 3 4 3 1 0 1 1 2 2 2 4 3 4 1 2 4 1 2 2 3 3 2 4 3 1 2 4 4 2 2 3 3 1 1 0 1 2 5 5 2 3 4 0 6 7 8 6 6 6 7 8 8 8 9 9
4 5 6 7 8 9 11 12 11 6 6 6 5 2 1 1 2 6 4 1 1 4 5 5 1 1 0 1 0 0 0 0 1 1 1 2 2 4 3 4 2 2 3 3 2 2 2 1 2 1 2 2 5 2 3 3 1 2 2 3 2 2 2 1 1 0 2 2 5 7 2 3 4 2 2 5 5 6 6 6 6 7 8 6 6 6 8
4 5 6 7 8 9 9 10 8 8 8 9 11 10 5 3 6 5 2 0 5 1 2 5 3 1 1 1 1 1 0 0 2 4 0 1 1 1 1 3 2 4 3 4 4 2 1 2 0 3 1 2 2 1 2 2 3 2 3 2 2 3 3 1 0 2 2 2 3 3 8 7 3 2 3 2 4 7 8 6 5 6 6 7 8 8 8
3 4 4 5 5 6 8 8 9 10 6 4 6 6 4 6 6 7 2 4 4 1 4 3 2 2 1 3 3 1 1 1 1 1 1 1 0 1 1 2 3 2 5 4 1 3 3 3 2 1 3 3 1 1 1 3 2 3 1 1 2 3 1 2 1 0 1 2 2 2 6 3 1 1 3 6 8 6 4 4 5 7 7 6 7 7 8
2 2 1 3 4 2 3 3 2 4 4 1 0 2 3 10 7 5 3 1 1 3 3 3 3 4 3 4 1 3 0 2 2 1 1 2 1 1 1 2 4 4 2 2 4 1 1 0 3 2 1 1 2 1 3 3 3 2 1 2 2 2 2 3 2 1 2 2 3 4 3 2 4 5 5 5 6 7 5 6 5 6 7 7 7 8 8
2 1 1 2 2 3 1 4 5 2 3 1 1 2 7 8 6 3 6 8 6 4 4 0 3 2 1 1 2 2 0 0 1 1 0 0 2 2 3 2 3 1 0 4 1 2 1 1 1 1 1 1 3 3 2 4 5 2 1 2 3 2 2 2 3 2 3 3 4 6 1 3 4 3 5 5 6 4 3 5 4 5 5 7 8 9 9
2 1 3 4 3 2 4 0 2 1 1 2 5 7 9 5 2 4 7 7 7 4 6 3 6 1 0 2 1 3 3 2 4 2 4 3 1 2 2 2 1 1 2 3 2 2 1 1 3 0 1 2 2 2 2 3 3 1 2 3 2 1 1 1 1 1 4 5 5 4 1 1 3 2 3 5 5 3 4 6 7 7 6 8 9 8 9
2 5 1 1 2 2 1 2 1 1 2 6 5 2 4 7 1 3 4 6 3 6 5 5 3 2 2 1 1 3 1 1 2 2 2 0 0 0 0 3 1 0 1 1 2 2 1 4 1 1 4 4 2 2 2 2 2 0 2 2 1 2 2 2 1 2 5 6 2 2 3 2 3 3 5 6 4 5 6 6 7 7 7 8 8 8 8
4 1 3 3 2 0 1 0 1 2 1 0 2 1 1 1 2 2 1 1 3 5 3 5 1 0 1 2 4 3 2 1 3 2 2 2 1 2 2 2 1 2 1 2 0 1 1 1 1 3 5 2 1 3 2 3 1 0 1 1 2 2 2 2 1 0 2 4 3 1 2 1 4 7 4 4 5 6 6 6 7 7 7 7 7 6 7
1 1 0 1 2 0 2 3 3 0 2 0 3 2 1 2 5 1 1 2 3 1 2 4 0 0 1 1 0 3 2 4 4 4 1 3 0 1 2 1 1 1 1 0 2 1 1 2 1 1 5 2 4 1 3 1 0 0 2 2 3 3 3 2 0 2 1 3 5 5 3 2 1 2 3 3 6 7 7 6 5 5 6 6 7 6 6
2 1 2 2 1 1 1 0 1 2 1 1 1 2 1 3 2 0 1 2 1 1 0 1 3 3 2 2 2 1 3 2 1 1 2 1 2 1 1 0 1 1 0 0 2 2 1 0 1 1 4 2 3 3 2 0 0 0 2 3 3 3 2 0 1 1 3 4 3 3 2 1 1 1 1 1 2 3 3 4 5 6 5 5 6 6 6
1 0 1 3 2 1 0 2 3 1 1 1 2 1 0 1 1 3 1 1 1 1 4 2 3 1 3 0 1 1 3 0 1 1 0 1 1 1 1 1 2 1 0 1 1 1 1 0 2 4 4 2 2 2 1 0 1 1 3 3 3 2 1 0 1 2 3 4 3 2 0 1 1 1 1 1 1 1 2 3 5 5 5 5 4 4 6
3 4 3 2 1 2 1 2 3 2 2 3 3 2 2 3 1 0 2 0 1 1 2 0 1 1 1 1 1 1 3 0 1 1 1 1 1 2 1 1 1 1 1 1 1 1 1 1 2 5 2 3 3 3 1 1 0 2 3 3 3 2 1 0 3 5 4 4 2 1 0 1 2 1 1 0 2 5 4 3 5 4 5 5 5 4 5
2 2 1 2 1 1 1 1 1 2 2 1 2 0 2 2 3 3 2 1 1 1 1 2 3 5 3 1 1 2 3 1 3 1 0 0 1 1 1 0 0 2 1 1 1 1 3 3 7 2 2 3 2 2 1 2 1 2 3 3 2 2 1 2 6 4 3 2 1 0 0 3 3 1 0 1 2 3 7 8 6 4 4 4 5 5 5
1 2 2 1 2 2 1 2 2 3 2 1 1 1 2 0 3 2 2 1 1 1 1 1 0 1 4 5 0 0 0 1 2 1 1 1 1 0 1 1 1 1 1 2 1 2 1 3 2 1 2 3 4 2 0 1 1 2 3 3 2 1 0 0 3 3 3 2 1 1 2 2 2 2 1 2 1 2 2 4 4 4 4 4 5 5 5
2 0 1 3 4 4 3 0 1 1 1 2 1 4 2 4 2 2 1 1 0 1 2 0 1 1 3 3 1 1 1 1 1 0 0 0 1 1 1 0 2 1 1 1 0 3 4 4 3 5 4 4 3 1 1 1 0 2 3 2 2 2 1 1 3 3 4 2 1 1 1 1 1 1 3 2 2 3 2 2 2 2 3 4 5 5 6
2 1 3 2 3 1 1 1 1 1 1 1 2 4 1 1 4 2 0 1 0 1 1 1 2 2 0 3 2 1 1 1 0 1 0 0 0 1 1 1 1 0 0 2 2 3 5 5 4 3 3 3 2 2 1 1 2 2 2 2 2 2 1 0 2 4 3 2 0 1 1 1 1 1 1 3 3 2 2 1 2 2 1 3 4 4 5
1 1 1 2 1 0 1 1 0 0 0 1 0 1 1 0 1 1 1 1 1 2 0 0 0 1 1 1 0 1 1 0 0 1 1 0 0 0 1 0 1 2 2 2 5 4 4 2 3 4 4 3 3 2 2 1 3 3 3 3 3 3 2 1 0 3 3 1 1 0 1 1 2 2 2 3 4 4 3 2 2 2 2 3 4 5 4
4 2 1 2 1 1 1 0 2 1 1 0 1 0 0 1 3 4 2 1 1 0 1 1 1 1 1 0 1 0 1 0 0 1 1 1 0 1 0 1 1 3 4 7 5 4 4 3 3 4 3 2 2 3 3 3 4 5 4 4 3 4 3 2 2 3 2 2 1 0 1 2 1 2 3 3 4 4 3 3 3 2 3 4 7 5 6
3 2 3 3 2 1 0 0 1 2 2 1 0 1 0 1 3 3 2 2 0 1 0 1 0 1 1 0 1 0 1 1 1 0 0 1 1 0 1 2 4 4 2 2 4 5 3 3 4 3 3 4 3 3 2 2 3 4 3 3 2 2 2 2 1 4 2 1 0 0 1 1 2 2 3 4 4 3 4 4 3 2 4 5 6 8 9
1 4 1 0 0 2 6 1 2 1 2 4 4 5 5 3 3 2 1 2 3 1 1 0 1 1 1 1 1 1 0 1 0 1 2 2 1 2 2 3 5 6 6 4 3 3 5 4 6 4 3 3 4 3 3 4 5 5 4 4 3 2 1 1 2 3 2 1 1 1 1 2 3 3 4 1 2 4 5 3 1 2 5 4 5 8 9
1 2 0 0 0 1 1 1 1 2 2 1 3 2 3 1 2 1 0 5 2 1 0 1 1 1 1 0 1 1 0 1 0 0 1 3 3 3 3 6 6 5 4 3 4 3 4 4 5 5 4 3 2 3 3 6 6 5 6 4 3 2 1 1 2 3 2 0 1 3 2 3 2 2 1 1 1 3 4 6 6 6 6 5 6 6 7
Wind_Direction
351 350 351 350 350 352 356 356 358 2 355 36 333 18 28 49 170 252 357 314 91 63 59 303 35 60 228 283 19 1 29 138 238 74 334 350 124 0 57 204 95 245 206 270 253 170 278 165 289 259 269 251 255 261 313 297 343 153 306 17 303 58 85 7 283 308 300 333 321 85 81 192 11 14 42 46 25 200 168 180 190 195 313 284 329 230 175
350 350 349 349 349 354 355 357 1 4 20 59 297 67 111 168 246 328 296 51 95 77 111 7 338 300 310 65 230 216 171 108 7 4 315 101 345 76 306 337 146 288 100 138 260 225 9 262 83 6 179 2 88 330 354 330 58 113 327 112 307 34 296 120 330 1 339 346 350 7 334 54 75 56 344 27 61 53 114 93 25 167 258 159 119 258 242
348 347 347 348 352 351 353 354 356 2 3 14 161 79 165 111 297 239 309 358 53 112 189 134 145 328 135 23 25 345 5 177 179 159 276 11 166 68 310 205 281 305 242 260 270 282 178 292 334 124 203 245 9 315 11 320 221 276 268 272 288 111 233 91 347 297 349 311 316 281 301 306 304 55 357 360 51 343 358 285 9 95 306 49 113 257 253
345 345 346 349 349 350 349 349 351 356 3 357 83 147 52 37 105 310 341 11 31 65 51 102 133 111 116 43 304 118 357 9 316 131 284 160 260 159 266 346 98 6 20 351 351 331 342 145 278 44 327 311 336 242 319 357 257 269 272 301 51 171 1 119 152 150 194 214 224 255 351 355 51 355 33 344 1 18 91 106 73 90 270 335 237 227 292
344 345 348 348 347 347 347 345 347 352 358 8 101 42 100 157 72 7 333 341 44 67 11 35 51 87 144 87 232 5 345 259 349 169 5 31 110 327 90 290 29 325 57 319 311 256 307 353 71 11 251 266 255 305 260 309 283 299 334 124 85 68 9 297 128 197 220 237 273 348 40 100 31 63 16 28 30 22 64 76 213 195 75 314 245 1 350
345 347 347 346 345 345 345 344 344 350 354 359 32 43 7 60 254 110 210 113 314 28 340 55 60 16 74 111 57 347 2 17 26 314 168 21 1 91 337 41 75 186 221 38 334 321 326 20 273 347 212 334 333 35 355 23 315 352 325 35 113 127 47 287 87 289 286 305 203 101 79 70 87 81 66 48 33 48 70 109 118 84 120 219 309 4 323
347 348 348 347 347 345 345 345 344 347 350 22 113 98 322 115 151 152 325 1 255 129 242 82 96 64 65 115 60 2 71 330 233 174 322 25 348 54 346 294 300 308 292 137 270 317 23 325 242 149 304 344 337 0 342 276 24 37 3 358 145 86 284 259 136 309 7 18 85 100 103 100 68 57 53 48 59 59 80 77 336 84 241 55 355 336 304
350 351 351 352 350 349 349 347 344 344 345 29 56 48 97 349 82 308 5 90 96 343 50 79 61 58 346 85 324 150 173 283 330 14 65 357 319 0 3 284 309 312 293 149 135 245 193 216 281 258 96 327 82 263 186 292 328 29 34 351 312 85 294 24 312 38 3 30 67 67 97 103 81 53 49 49 62 75 75 47 342 10 1 20 358 342 303
355 356 355 357 356 356 354 350 351 347 346 42 78 16 68 202 145 148 113 55 316 17 25 47 101 74 346 64 302 49 293 303 229 257 186 169 256 345 294 296 323 6 81 62 148 225 174 193 231 217 152 266 266 94 292 119 322 349 2 12 315 54 296 58 54 59 335 2 85 92 95 92 92 47 17 27 32 22 340 38 323 73 295 315 340 338 311
0 1 4 5 8 7 5 4 2 352 5 113 107 72 286 95 235 87 105 86 315 55 348 8 61 19 246 125 292 95 330 291 25 342 181 216 220 209 272 251 157 323 53 23 234 242 189 222 207 180 229 254 255 60 269 151 327 311 45 230 45 20 63 20 7 59 270 286 154 168 175 20 343 8 337 349 67 52 344 111 55 31 282 41 346 283 333
14 18 19 21 22 21 18 20 15 7 36 90 100 59 12 122 72 16 46 92 342 21 340 359 91 249 160 7 319 11 331 7 353 118 288 51 334 179 164 169 75 246 201 234 215 191 197 193 197 96 82 70 81 43 64 47 50 113 61 44 357 58 78 230 167 101 255 288 331 191 54 352 239 313 359 306 102 39 3 316 94 50 64 311 330 304 325
31 29 33 33 36 32 27 25 19 25 54 144 116 112 206 123 75 89 89 90 242 1 85 80 53 316 55 317 197 275 343 329 321 170 258 267 251 60 80 32 106 13 228 62 57 344 264 93 89 83 74 59 65 58 55 60 17 25 31 102 102 26 37 50 143 57 283 316 19 42 9 239 192 137 35 5 252 33 351 108 104 70 14 13 343 345 342
33 36 38 39 34 29 24 19 15 10 30 100 92 115 286 203 122 126 123 110 84 353 40 91 11 108 258 338 10 243 250 266 321 246 148 58 313 357 269 148 142 246 114 131 73 69 88 86 42 85 28 5 13 35 39 34 25 11 35 62 94 349 49 260 27 73 355 35 23 39 264 247 133 280 30 0 52 18 350 128 161 326 31 9 346 336 327
34 36 37 33 28 22 19 17 17 22 30 73 81 88 10 9 78 59 89 94 10 281 165 2 12 0 358 337 273 290 314 307 317 205 342 198 201 256 288 169 229 140 144 108 76 86 57 41 50 26 324 12 3 32 328 22 54 46 25 9 20 131 102 80 3 81 85 205 159 227 115 337 11 8 359 356 347 337 355 310 319 61 30 27 339 329 336
35 36 33 29 26 22 18 17 20 33 61 63 99 78 44 16 28 128 190 90 148 175 23 128 315 296 303 288 340 5 18 303 26 202 253 241 153 232 196 255 87 116 129 105 45 30 170 129 18 32 334 48 260 270 352 51 352 77 56 29 37 29 77 262 97 330 115 77 353 350 6 271 231 62 313 313 302 285 296 257 276 79 31 24 357 345 340
34 32 27 26 22 17 15 13 16 24 69 97 68 93 62 22 200 81 107 132 129 131 351 280 297 260 329 281 330 54 342 331 315 314 346 329 266 339 322 316 281 124 53 76 122 104 100 78 229 82 17 304 248 97 315 46 15 319 36 34 42 38 68 58 94 32 31 22 85 252 203 247 133 309 313 309 298 295 304 125 247 43 13 12 2 341 345
31 29 26 23 21 15 13 13 15 15 13 98 100 80 44 355 47 70 86 39 62 118 120 320 264 235 289 329 3 15 14 4 340 21 341 330 299 270 306 29 357 126 184 91 1 59 23 39 59 126 274 236 25 160 347 53 9 332 336 11 30 31 1 18 41 28 60 145 33 307 206 241 317 328 318 312 293 319 70 340 265 25 357 358 0 350 341
24 22 19 17 14 12 8 8 12 17 20 50 101 89 26 353 86 90 59 92 109 52 36 351 333 23 33 311 272 306 2 357 13 342 232 272 357 12 326 18 340 277 193 58 4 61 46 71 32 31 66 309 116 62 59 142 31 307 324 346 359 358 343 38 55 62 325 46 283 319 319 82 4 330 317 312 308 52 41 268 283 340 352 357 350 334 331
17 11 9 9 8 7 6 8 11 13 30 88 95 55 37 13 346 73 108 70 71 92 331 37 283 338 312 250 245 242 238 236 261 9 322 7 30 288 250 243 125 353 2 72 56 70 96 295 64 116 93 329 29 105 340 40 303 313 16 14 2 2 27 313 69 25 343 254 239 253 241 82 319 325 329 324 354 16 272 273 340 331 339 337 333 326 334
8 8 355 0 4 7 10 11 14 14 18 36 94 100 167 1 346 35 113 103 66 106 16 24 1 39 4 41 14 24 341 24 17 96 82 294 298 5 35 5 323 65 352 41 48 236 86 3 311 83 37 57 35 148 62 58 93 30 19 126 114 286 32 306 314 287 35 36 344 358 345 262 8 324 335 38 100 276 1 318 317 326 320 323 330 338 350
9 3 3 5 11 16 18 20 18 16 24 38 93 104 42 1 14 25 83 123 129 107 39 84 66 50 42 54 43 37 22 79 357 32 298 245 271 23 71 264 284 18 350 48 66 343 62 352 355 76 221 118 306 49 170 167 8 357 103 145 114 175 73 320 313 160 129 359 40 248 240 334 346 25 13 342 26 306 307 324 304 314 315 334 338 352 358
16 14 15 14 15 21 18 20 16 9 14 58 88 80 92 315 51 62 64 68 75 91 149 200 140 113 107 132 127 64 62 34 10 212 351 313 336 75 157 95 30 72 299 83 31 354 7 261 66 47 26 335 19 99 164 61 57 279 338 77 21 2 96 184 235 283 126 217 230 352 79 41 16 83 65 39 326 11 285 276 319 334 350 2 351 332 337
9 11 11 13 12 13 14 12 10 2 23 49 82 77 114 86 22 324 53 78 68 78 61 92 95 136 111 74 39 104 113 66 8 55 59 26 339 18 46 31 357 326 326 50 127 143 199 104 99 149 84 65 123 108 27 128 156 357 44 343 160 167 313 280 133 278 287 247 219 325 357 21 358 125 132 74 6 232 348 3 356 355 17 2 346 338 341
21 20 16 15 12 13 14 14 8 9 34 47 102 121 92 130 181 74 50 77 112 128 53 142 106 4 350 337 328 359 22 25 34 35 119 151 88 342 0 56 259 351 36 13 204 127 235 96 173 125 97 241 88 59 110 20 37 169 59 337 342 254 359 31 64 301 10 305 158 359 345 334 22 125 17 51 62 33 12 7 7 14 359 349 350 348 341
23 18 17 16 18 19 20 24 25 28 42 73 75 74 101 46 11 85 108 99 63 91 107 337 32 251 267 198 102 60 128 236 300 245 183 283 311 100 105 291 238 64 278 294 349 53 35 84 22 55 93 253 107 65 287 115 30 102 71 281 21 324 52 75 25 318 199 249 329 345 335 325 358 101 16 355 10 21 11 32 24 8 349 347 356 351 338
15 17 15 15 20 23 30 29 38 47 58 56 86 92 90 86 305 78 87 73 97 97 98 63 327 355 270 19 8 237 232 290 349 1 280 189 165 167 236 340 353 356 269 304 72 92 104 57 87 102 102 345 58 131 73 251 150 70 124 218 215 267 23 218 294 288 283 289 297 1 325 280 161 27 26 359 6 7 11 18 8 356 350 360 358 350 332
11 15 13 12 17 25 31 40 35 56 68 78 77 85 107 120 5 78 90 163 95 28 51 117 270 299 38 76 230 315 299 294 339 341 333 254 171 150 230 299 305 328 72 28 36 109 63 93 85 38 78 197 97 104 122 29 77 102 98 229 343 34 351 288 33 330 301 297 329 1 350 319 311 353 357 359 32 23 4 11 3 359 357 354 343 338 342
9 9 14 12 22 35 46 50 53 63 72 71 78 77 79 70 6 14 69 135 108 151 147 163 134 203 148 89 266 251 277 291 281 293 290 285 179 189 247 289 187 62 9 68 25 24 31 64 69 213 132 337 61 17 35 112 69 33 39 299 228 126 255 47 281 261 272 323 8 342 267 278 305 343 339 57 30 17 15 9 357 352 7 356 347 338 339
5 9 13 20 22 38 42 55 65 88 96 95 88 68 40 85 33 36 42 44 105 94 89 117 65 41 63 305 16 355 286 231 322 323 317 359 96 182 254 359 58 112 88 76 97 109 93 122 170 96 45 203 93 157 59 6 58 171 240 219 2 249 218 238 252 273 274 345 348 17 324 292 309 326 335 73 30 32 13 7 357 7 0 355 346 343 333
12 11 17 17 22 27 33 31 110 78 119 69 48 48 43 357 17 37 13 52 96 116 106 120 77 270 321 358 328 310 324 351 1 21 28 18 24 26 16 49 36 55 94 117 132 87 121 104 337 337 345 19 123 161 85 156 103 246 227 212 241 286 284 207 181 183 273 6 328 298 292 291 296 324 4 74 44 32 15 355 3 5 0 353 343 337 336
23 20 21 26 32 43 50 59 74 91 78 68 72 51 39 44 311 38 22 35 81 99 115 84 110 249 38 229 123 338 336 336 356 360 337 343 337 308 296 84 34 76 49 3 43 109 100 29 28 337 318 31 93 110 166 125 223 307 226 198 231 258 261 245 228 253 315 15 316 312 304 299 327 323 64 52 23 16 4 354 21 10 356 347 344 336 330
36 38 45 50 47 44 46 51 54 72 80 76 86 140 175 199 261 309 355 46 78 59 84 93 48 14 247 309 288 216 36 353 344 355 350 24 3 3 8 72 88 24 107 102 140 59 53 176 104 334 54 337 68 107 78 82 141 251 215 202 245 271 255 225 285 178 78 37 6 339 265 307 335 39 290 15 12 7 6 13 14 360 352 339 331 331 328
67 68 73 59 50 55 62 70 59 61 92 109 108 103 106 18 324 307 316 346 55 77 111 85 106 194 76 250 302 313 148 25 354 33 350 317 308 358 31 5 33 46 6 75 8 105 196 111 126 47 319 32 81 90 96 164 212 215 168 199 283 271 268 248 241 140 100 38 56 330 305 312 330 30 49 356 3 7 7 7 5 350 344 338 334 331 328
88 95 70 56 57 70 83 88 89 90 60 50 27 10 329 359 348 350 25 91 99 85 70 91 56 40 250 318 66 291 49 67 282 33 50 306 145 71 305 35 353 73 348 80 253 61 341 66 58 234 345 10 44 77 328 256 204 185 195 245 277 288 268 299 311 101 20 12 341 277 282 307 39 124 17 11 360 1 1 6 355 350 336 332 329 328 327
116 94 52 36 42 74 118 94 46 48 89 42 17 256 292 336 359 333 18 124 75 357 37 20 96 60 1 359 46 276 253 75 348 303 88 286 30 39 330 52 326 69 305 79 44 93 52 284 175 61 279 303 43 342 247 226 209 200 221 307 291 287 325 330 296 30 351 336 311 296 315 49 30 17 356 345 344 347 355 355 355 342 333 329 327 328 333
121 97 38 357 45 79 73 25 47 34 33 46 170 295 325 319 354 357 44 55 99 141 84 265 72 88 138 27 314 280 29 70 280 352 218 290 350 10 90 109 58 321 266 68 155 358 83 303 67 274 290 61 235 189 233 182 179 188 218 265 277 206 229 217 255 318 309 308 294 298 321 73 50 11 345 338 331 337 355 338 340 335 322 319 329 328 326
94 82 38 39 28 38 35 230 292 89 180 212 258 297 310 324 326 46 13 36 17 67 113 125 62 25 170 253 253 284 31 345 345 16 342 36 288 291 45 43 94 302 41 9 20 42 277 45 105 116 321 179 249 245 219 168 153 165 287 286 262 159 120 73 67 325 322 315 294 288 299 76 10 349 330 322 327 334 342 343 343 338 331 330 328 329 323
123 52 68 37 41 43 9 334 331 260 302 338 1 16 2 32 87 345 7 38 340 61 12 65 85 269 356 80 314 287 64 283 61 39 316 235 62 326 28 107 217 237 35 280 258 191 70 39 55 171 266 258 256 213 199 153 143 297 292 267 164 144 136 110 69 8 330 325 312 324 329 316 324 331 335 329 342 344 340 338 336 335 331 329 327 322 318
86 60 48 38 96 137 170 253 277 359 75 317 42 66 346 27 52 23 345 317 14 22 320 84 25 224 80 38 281 303 83 312 338 23 58 289 83 313 25 70 292 72 331 28 298 60 312 331 346 27 293 276 270 236 182 158 138 224 223 150 127 126 113 121 129 148 257 270 266 149 145 343 329 330 328 329 345 338 336 337 336 337 335 327 322 316 316
43 50 123 42 67 235 252 290 325 108 56 69 332 98 52 350 75 343 337 38 354 307 31 28 179 281 58 64 325 301 328 52 23 336 330 311 355 137 269 93 268 89 329 76 255 39 104 287 285 37 293 258 240 181 147 170 263 256 134 121 112 112 128 145 288 302 295 106 109 107 82 68 292 303 325 343 344 333 333 336 335 331 331 320 317 320 326
36 81 41 84 227 222 249 266 4 52 62 31 16 9 53 7 26 184 52 54 72 270 168 185 6 10 328 52 85 262 299 76 146 137 127 247 247 105 47 64 231 87 306 276 286 64 69 55 336 206 241 223 201 173 179 175 263 116 125 127 126 130 124 156 308 294 135 117 109 87 71 33 340 307 0 2 339 333 328 324 321 320 316 315 321 323 322
189 163 175 126 116 106 19 20 56 42 18 97 108 340 275 223 322 14 80 76 302 314 317 32 354 340 280 225 263 160 295 175 135 100 95 345 313 102 214 306 7 106 241 238 123 53 75 218 302 289 262 247 190 172 146 293 295 154 148 136 129 137 147 269 89 76 89 109 103 82 51 341 340 0 96 19 321 299 309 309 315 317 312 304 308 322 326
47 66 71 56 35 2 70 50 340 86 79 359 24 19 5 44 10 103 289 312 303 95 271 102 234 249 273 43 328 187 194 227 33 320 60 251 322 54 82 0 45 24 245 358 61 45 9 250 250 250 232 206 192 189 201 215 247 127 141 138 145 168 180 179 154 144 130 121 128 112 347 349 14 117 157 128 12 345 323 300 304 300 306 314 321 323 322
35 32 33 350 59 304 61 39 321 41 19 63 81 13 333 8 315 9 4 305 325 5 10 33 309 50 301 304 118 307 8 353 73 83 36 350 84 337 47 330 225 251 50 38 34 197 229 221 211 226 208 199 192 210 226 325 355 127 138 145 157 164 162 102 120 122 137 151 165 198 66 24 15 3 10 99 102 324 317 317 312 309 310 323 324 322 311
133 349 34 23 32 294 56 339 347 95 59 293 113 178 153 278 273 196 215 250 103 266 332 72 82 82 254 280 51 202 135 251 301 96 259 20 34 49 101 272 261 33 81 254 313 304 337 277 276 270 219 202 208 206 177 302 265 214 177 167 183 173 174 130 160 150 151 152 141 29 20 345 338 331 315 302 280 222 251 305 299 320 323 321 313 313 314
67 140 75 65 6 342 78 124 347 37 300 140 197 200 163 232 182 233 257 129 116 340 359 281 127 115 279 255 120 254 333 67 26 254 173 71 101 290 246 228 84 53 355 52 301 243 234 245 230 233 212 203 195 209 212 272 157 107 116 195 218 215 247 193 170 162 165 155 174 73 6 327 319 308 320 299 297 304 302 284 298 307 310 314 312 316 314
79 22 79 121 101 284 82 98 270 213 180 207 216 180 171 215 199 199 208 127 186 210 193 240 194 175 270 307 355 354 22 44 130 268 83 25 206 261 17 104 272 197 146 291 262 260 273 264 240 218 188 191 207 227 249 236 168 163 173 191 194 231 198 135 156 164 167 165 141 30 8 325 294 291 312 329 317 317 311 309 319 320 289 284 288 299 309
95 242 94 76 245 188 57 253 168 37 42 130 250 208 223 186 8 312 239 173 175 121 74 36 64 339 317 292 101 214 241 108 72 296 141 199 21 45 8 23 287 248 199 188 238 221 237 241 218 198 200 187 192 225 268 229 186 186 188 209 222 207 179 194 167 155 153 137 74 346 275 286 290 289 290 291 298 302 293 315 323 306 302 309 310 314 313
116 87 93 163 180 154 197 262 91 206 246 315 288 179 129 158 239 250 235 157 101 160 184 124 212 100 267 197 106 347 288 312 94 259 14 27 116 227 144 245 324 323 265 185 220 216 216 219 197 181 186 196 224 213 243 226 192 193 198 211 221 202 192 209 203 163 151 140 174 193 273 265 266 277 291 308 307 302 317 330 317 295 273 298 309 313 322
57 17 30 69 66 6 241 104 81 294 305 333 5 263 202 186 264 273 173 107 163 107 20 55 113 110 227 108 306 9 255 292 151 334 69 254 208 210 65 303 232 198 256 242 227 242 224 189 144 167 223 221 235 222 230 201 190 196 214 216 182 165 188 226 178 139 160 151 150 230 235 268 273 281 274 277 281 290 308 308 296 304 320 304 303 320 328
24 108 163 195 140 208 144 159 201 227 288 254 212 231 182 208 190 185 175 126 109 74 53 138 221 88 9 16 55 20 258 180 53 212 172 215 188 115 192 216 244 213 230 229 215 204 182 175 172 191 222 236 233 225 216 196 194 206 209 188 187 193 212 171 159 152 156 159 177 152 242 257 245 243 267 307 326 325 315 299 282 321 327 331 336 337 333
58 51 196 261 59 121 146 121 78 156 189 206 190 234 135 206 223 190 167 99 103 94 288 197 77 38 57 232 228 205 324 43 218 354 339 258 160 159 217 202 234 233 219 212 241 228 205 193 187 183 193 192 215 210 197 190 197 211 203 202 196 197 224 201 173 173 167 165 180 192 241 253 266 283 262 267 349 349 351 327 325 332 334 332 321 318 314